TimeCST,TemperatureF,Dew PointF,Humidity,Sea Level PressureIn,VisibilityMPH,Wind Direction,Wind SpeedMPH,Gust SpeedMPH,PrecipitationIn,Events,Conditions,WindDirDegrees,DateUTC
12:15 AM,63.0,58.1,84,30.21,10.0,Calm,Calm,-,N/A,,Clear,0,2012-11-19 06:15:00
12:35 AM,63.1,58.3,84,30.20,10.0,Calm,Calm,-,N/A,,Scattered Clouds,0,2012-11-19 06:35:00
12:55 AM,62.4,57.7,85,30.20,10.0,Calm,Calm,-,N/A,,Mostly Cloudy,0,2012-11-19 06:55:00
1:15 AM,61.9,57.9,87,30.19,10.0,Calm,Calm,-,N/A,,Scattered Clouds,0,2012-11-19 07:15:00
1:35 AM,62.2,57.7,85,30.20,10.0,Calm,Calm,-,N/A,,Scattered Clouds,0,2012-11-19 07:35:00
1:55 AM,61.2,57.6,88,30.19,10.0,Calm,Calm,-,N/A,,Scattered Clouds,0,2012-11-19 07:55:00
2:15 AM,61.0,57.6,88,30.18,10.0,Calm,Calm,-,N/A,,Clear,0,2012-11-19 08:15:00
2:35 AM,60.3,56.8,88,30.19,10.0,Calm,Calm,-,N/A,,Clear,0,2012-11-19 08:35:00
2:55 AM,59.5,56.3,89,30.17,10.0,Calm,Calm,-,N/A,,Clear,0,2012-11-19 08:55:00
3:15 AM,58.6,56.1,91,30.17,10.0,Calm,Calm,-,N/A,,Clear,0,2012-11-19 09:15:00
4:15 AM,59.9,56.7,89,30.17,10.0,Calm,Calm,-,N/A,,Overcast,0,2012-11-19 10:15:00
4:55 AM,59.5,56.5,90,30.17,10.0,Calm,Calm,-,N/A,,Overcast,0,2012-11-19 10:55:00
5:15 AM,60.8,57.2,88,30.17,10.0,Calm,Calm,-,N/A,,Overcast,0,2012-11-19 11:15:00
5:35 AM,61.3,57.6,87,30.17,10.0,Calm,Calm,-,N/A,,Overcast,0,2012-11-19 11:35:00
5:55 AM,62.1,57.9,86,30.17,10.0,Calm,Calm,-,N/A,,Overcast,0,2012-11-19 11:55:00
6:15 AM,62.2,57.9,86,30.18,10.0,Calm,Calm,-,N/A,,Overcast,0,2012-11-19 12:15:00
6:35 AM,62.6,58.1,85,30.18,10.0,NE,3.5,-,N/A,,Overcast,40,2012-11-19 12:35:00
6:55 AM,63.5,58.5,84,30.19,10.0,Calm,Calm,-,N/A,,Overcast,0,2012-11-19 12:55:00
7:15 AM,63.5,58.3,83,30.20,10.0,Calm,Calm,-,N/A,,Overcast,0,2012-11-19 13:15:00
7:35 AM,63.9,58.5,83,30.21,10.0,Calm,Calm,-,N/A,,Overcast,0,2012-11-19 13:35:00
7:55 AM,64.4,59.0,83,30.22,10.0,Calm,Calm,-,N/A,,Overcast,0,2012-11-19 13:55:00
8:15 AM,65.3,59.0,80,30.22,10.0,Calm,Calm,-,N/A,,Overcast,0,2012-11-19 14:15:00
8:35 AM,66.0,59.2,79,30.23,10.0,Calm,Calm,-,N/A,,Overcast,0,2012-11-19 14:35:00
8:55 AM,67.1,59.7,77,30.23,10.0,Calm,Calm,-,N/A,,Overcast,0,2012-11-19 14:55:00
9:15 AM,68.7,59.9,73,30.23,10.0,Calm,Calm,-,N/A,,Overcast,0,2012-11-19 15:15:00
9:35 AM,70.3,60.4,71,30.23,10.0,Calm,Calm,-,N/A,,Overcast,0,2012-11-19 15:35:00
9:55 AM,72.0,60.6,67,30.24,10.0,SE,4.6,-,N/A,,Overcast,130,2012-11-19 15:55:00
10:15 AM,74.1,60.8,63,30.23,10.0,SE,5.8,-,N/A,,Overcast,140,2012-11-19 16:15:00
10:35 AM,75.2,60.8,61,30.24,10.0,SE,5.8,-,N/A,,Overcast,140,2012-11-19 16:35:00
10:55 AM,76.1,60.3,58,30.23,10.0,SSE,6.9,-,N/A,,Overcast,150,2012-11-19 16:55:00
11:15 AM,76.6,59.4,55,30.23,10.0,South,6.9,-,N/A,,Overcast,170,2012-11-19 17:15:00
11:35 AM,77.2,60.1,55,30.22,10.0,SE,4.6,-,N/A,,Overcast,130,2012-11-19 17:35:00
11:55 AM,77.9,60.1,54,30.21,10.0,SE,6.9,-,N/A,,Overcast,130,2012-11-19 17:55:00
12:15 PM,79.0,60.6,53,30.20,10.0,ESE,3.5,-,N/A,,Overcast,120,2012-11-19 18:15:00
12:35 PM,79.0,60.3,53,30.19,10.0,SSE,4.6,-,N/A,,Overcast,160,2012-11-19 18:35:00
12:55 PM,80.2,59.9,50,30.18,10.0,Calm,Calm,-,N/A,,Overcast,0,2012-11-19 18:55:00
1:15 PM,79.9,59.2,49,30.16,10.0,South,5.8,-,N/A,,Overcast,170,2012-11-19 19:15:00
1:35 PM,79.9,59.4,49,30.16,10.0,Calm,Calm,-,N/A,,Overcast,0,2012-11-19 19:35:00
1:55 PM,80.1,59.4,49,30.15,10.0,Calm,Calm,-,N/A,,Overcast,0,2012-11-19 19:55:00
2:15 PM,80.6,59.4,48,30.14,10.0,SE,3.5,-,N/A,,Overcast,140,2012-11-19 20:15:00
2:35 PM,81.0,59.2,47,30.13,10.0,SE,3.5,-,N/A,,Overcast,130,2012-11-19 20:35:00
2:55 PM,81.0,59.2,47,30.12,10.0,SSE,3.5,-,N/A,,Overcast,160,2012-11-19 20:55:00
3:15 PM,80.6,59.0,48,30.12,10.0,Calm,Calm,-,N/A,,Overcast,0,2012-11-19 21:15:00
3:35 PM,81.5,58.8,46,30.11,10.0,Calm,Calm,-,N/A,,Overcast,0,2012-11-19 21:35:00
3:55 PM,80.2,59.0,48,30.12,10.0,East,9.2,-,N/A,,Overcast,80,2012-11-19 21:55:00
4:15 PM,79.9,59.0,49,30.12,10.0,East,11.5,-,N/A,,Overcast,90,2012-11-19 22:15:00
4:35 PM,79.7,59.0,49,30.12,10.0,East,10.4,-,N/A,,Overcast,100,2012-11-19 22:35:00
4:55 PM,78.8,59.2,51,30.12,10.0,East,10.4,-,N/A,,Overcast,80,2012-11-19 22:55:00
5:15 PM,78.1,59.2,52,30.13,10.0,East,8.1,16.1,N/A,,Overcast,100,2012-11-19 23:15:00
5:35 PM,77.0,59.5,55,30.13,10.0,East,9.2,-,N/A,,Overcast,100,2012-11-19 23:35:00
5:55 PM,76.1,59.9,57,30.13,10.0,ESE,9.2,-,N/A,,Scattered Clouds,110,2012-11-19 23:55:00
6:15 PM,75.4,59.9,58,30.14,10.0,ESE,6.9,-,N/A,,Scattered Clouds,110,2012-11-20 00:15:00
6:35 PM,75.2,60.8,61,30.15,10.0,East,8.1,-,N/A,,Overcast,100,2012-11-20 00:35:00
6:55 PM,74.3,61.2,63,30.16,10.0,East,5.8,-,N/A,,Mostly Cloudy,100,2012-11-20 00:55:00
7:15 PM,73.4,61.7,67,30.17,10.0,East,4.6,-,N/A,,Scattered Clouds,100,2012-11-20 01:15:00
7:35 PM,73.0,62.1,68,30.17,10.0,East,5.8,-,N/A,,Mostly Cloudy,90,2012-11-20 01:35:00
7:55 PM,72.7,62.1,69,30.18,10.0,ESE,4.6,-,N/A,,Overcast,110,2012-11-20 01:55:00
8:15 PM,72.7,62.1,69,30.19,10.0,Calm,Calm,-,N/A,,Overcast,0,2012-11-20 02:15:00
8:35 PM,72.5,62.1,70,30.18,10.0,ESE,3.5,-,N/A,,Overcast,110,2012-11-20 02:35:00
8:55 PM,71.6,61.9,71,30.18,10.0,ESE,4.6,-,N/A,,Mostly Cloudy,120,2012-11-20 02:55:00
9:15 PM,70.7,61.7,73,30.18,10.0,SE,3.5,-,N/A,,Mostly Cloudy,140,2012-11-20 03:15:00
9:35 PM,70.3,61.9,74,30.19,10.0,Calm,Calm,-,N/A,,Scattered Clouds,0,2012-11-20 03:35:00
9:55 PM,69.8,61.7,75,30.19,10.0,Calm,Calm,-,N/A,,Mostly Cloudy,0,2012-11-20 03:55:00
10:15 PM,69.1,61.7,77,30.19,10.0,Calm,Calm,-,N/A,,Scattered Clouds,0,2012-11-20 04:15:00
10:35 PM,67.6,61.2,80,30.18,10.0,Calm,Calm,-,N/A,,Clear,0,2012-11-20 04:35:00
11:15 PM,66.4,61.2,83,30.17,10.0,Calm,Calm,-,N/A,,Clear,0,2012-11-20 05:15:00
11:35 PM,65.3,60.8,85,30.18,10.0,Calm,Calm,-,N/A,,Clear,0,2012-11-20 05:35:00
11:55 PM,64.8,60.3,85,30.17,10.0,Calm,Calm,-,N/A,,Clear,0,2012-11-20 05:55:00